TIANWANG 1A (TW-1A)
1 40928U 15051D   19248.78272892  .00004139  00000-0  10173-3 0  9996
2 40928  97.1402 278.3301 0011910 138.7805 310.0943 15.41125082221358
LAPAN A2
1 40931U 15052B   19247.63149343  .00000508  00000-0 -18355-4 0  9996
2 40931   5.9930 220.7492 0013038 180.1577 179.9020 14.76611073212802
LQSAT
1 40958U 15057A   19248.83333304  .00000004  00000-0  82822-5 0  9996
2 40958  97.8926 315.8675 0017852 351.9721   8.1199 14.73087651210457
CHUBUSAT 2
1 41338U 16012B   19248.73814027 +.00000320 +00000-0 +18197-4 0  9990
2 41338 031.0042 002.4131 0013657 166.6258 193.4741 15.00173830194795
CHUBUSAT 3
1 41339U 16012C   19248.76494437  .00000370  00000-0  21986-4 0  9998
2 41339  31.0116   0.2325 0013330 174.1986 185.8805 15.00348076194791
OUFTI-1
1 41458U 16025C   19248.79486480 +.00001777 +00000-0 +92995-4 0  9996
2 41458 098.1010 339.6618 0167507 091.1733 270.8688 15.05988409184471
E-STAR-2
1 41459U 16025D   19248.89677615 +.00001903 +00000-0 +99759-4 0  9996
2 41459 098.1027 339.3891 0169134 092.3043 269.7521 15.05617407184464
AAUSAT 4
1 41460U 16025E   19248.83888941  .00003188  00000-0  16081-3 0  9991
2 41460  98.0966 340.7677 0158689  84.4165 277.5135 15.07569472184597
NUSAT 1
1 41557U 16033B   19248.86280637 +.00001144 +00000-0 +45405-4 0  9991
2 41557 097.4164 335.9030 0014364 024.9292 335.2638 15.27345747182178
BEESAT 4
1 41619U 16040W   19248.74189048 +.00001311 +00000-0 +58143-4 0  9998
2 41619 097.3608 309.4701 0013022 104.1739 256.0946 15.23267498165891
PRATHAM
1 41783U 16059A   19248.73071456 +.00000025 +00000-0 +13969-4 0  9990
2 41783 098.0604 306.5387 0034613 134.0531 226.3531 14.63007026157103
ALSAT 1N
1 41789U 16059G   19248.85692970  .00000088  00000-0  25585-4 0  9995
2 41789  98.0641 308.8300 0029490 122.8746 237.5278 14.64259273157230
NAYIF 1
1 42017U 17008BX  19248.73377108 +.00001397 +00000-0 +57689-4 0  9999
2 42017 097.3970 314.9944 0004670 243.4448 116.6312 15.25680770141974
MAX VALIER SAT
1 42778U 17036P   19248.74848266 +.00000836 +00000-0 +39457-4 0  9993
2 42778 097.3475 304.6471 0010942 312.1360 047.8946 15.22113672122263
